GLOBALSTAR M074 [+]

Last updated on July 6, 2021, 3:36 p.m. UTC

1 37189U 10054B   21186.81165065 -.00000084  00000-0  11293-3 0  9990
2 37189  51.9988 210.1639 0000147 257.5537 273.1635 12.62264968494907
UTC
Height (km)
Latitude
Longitude
Inclination
Orbital Period
UTC large
Height (km)
Speed (km/s)
/
Latitude / Longitude
Inclination (degrees)
Orbital Period (minutes)
Azimuth
Elevation
Range (km)
Doppler Factor
iOS Compass Heading
iOS Angle